Location: Karcze
(52.0945°N, 22.4786°E)
Time: 12:39:18
(UTC+00:00)

Cosmos 405 Rocket - Pass Details

Date: 14 July 2020
Orbit: 489 x 555 km, 81.3° (Epoch: 07 August)

Event Time Altitude Azimuth Distance (km) Brightness Sun altitude
Exits shadow 00:52:57 13° 234° (SW) 1,527 4.5 -10.4°
Maximum altitude 00:55:45 30° 291° (WNW) 939 3.9 -10.2°
Drops below altitude 10° 00:59:06 10° 354° (N) 1,719 6.2 -9.9°
Sets 01:01:24 0° 6° (N) 2,600 7.5 -9.7°
